TimeCST,TemperatureF,Dew PointF,Humidity,Sea Level PressureIn,VisibilityMPH,Wind Direction,Wind SpeedMPH,Gust SpeedMPH,PrecipitationIn,Events,Conditions,WindDirDegrees,DateUTC
12:15 AM,60.3,55.4,84,29.97,10.0,ESE,3.5,-,N/A,,Overcast,120,2013-01-08 06:15:00
12:55 AM,60.3,55.4,84,29.96,10.0,Calm,Calm,-,N/A,,Overcast,0,2013-01-08 06:55:00
1:15 AM,60.8,55.9,84,29.96,10.0,Calm,Calm,-,N/A,,Overcast,0,2013-01-08 07:15:00
1:35 AM,60.8,55.9,84,29.95,10.0,Calm,Calm,-,N/A,,Overcast,0,2013-01-08 07:35:00
1:55 AM,60.8,56.3,85,29.96,10.0,Calm,Calm,-,N/A,,Overcast,0,2013-01-08 07:55:00
2:15 AM,60.8,56.5,86,29.96,5.0,Calm,Calm,-,N/A,Rain,Heavy Rain,0,2013-01-08 08:15:00
2:35 AM,61.3,58.8,91,29.88,4.0,East,9.2,-,0.01,Rain,Light Rain,100,2013-01-08 08:35:00
2:55 AM,62.6,60.1,91,29.91,7.0,West,3.5,-,0.02,,Light Drizzle,260,2013-01-08 08:55:00
3:15 AM,62.2,59.9,92,29.90,7.0,NNW,3.5,-,N/A,,Overcast,330,2013-01-08 09:15:00
3:35 AM,60.8,58.5,92,29.90,5.0,Calm,Calm,-,N/A,,Overcast,0,2013-01-08 09:35:00
3:55 AM,61.0,59.0,93,29.89,5.0,NE,3.5,-,N/A,,Overcast,50,2013-01-08 09:55:00
4:15 AM,61.3,59.2,93,29.89,5.0,Calm,Calm,-,N/A,,Overcast,0,2013-01-08 10:15:00
4:35 AM,62.8,60.6,93,29.88,7.0,SE,4.6,-,N/A,,Overcast,130,2013-01-08 10:35:00
4:55 AM,64.6,62.6,93,29.89,10.0,Calm,Calm,-,N/A,,Overcast,0,2013-01-08 10:55:00
5:15 AM,64.6,62.2,92,29.88,10.0,SE,6.9,-,N/A,Rain,Rain,140,2013-01-08 11:15:00
5:35 AM,64.6,62.2,92,29.89,7.0,SSE,3.5,-,0.02,Rain,Rain,160,2013-01-08 11:35:00
5:55 AM,64.9,62.6,92,29.78,10.0,SE,31.1,39.1,0.06,Rain,Light Rain,130,2013-01-08 11:55:00
6:15 AM,66.4,63.9,92,29.78,7.0,SE,27.6,39.1,0.02,Rain,Light Rain,130,2013-01-08 12:15:00
6:35 AM,66.6,63.9,91,29.76,7.0,ESE,24.2,44.9,0.06,Rain,Light Rain,120,2013-01-08 12:35:00
6:55 AM,67.1,63.7,89,29.78,10.0,SE,21.9,31.1,0.06,,Scattered Clouds,140,2013-01-08 12:55:00
7:15 AM,67.1,64.0,90,29.84,10.0,SSE,16.1,25.3,N/A,,Scattered Clouds,150,2013-01-08 13:15:00
7:35 AM,67.1,63.9,89,29.89,10.0,SSE,12.7,-,N/A,,Scattered Clouds,160,2013-01-08 13:35:00
7:55 AM,67.1,64.2,90,29.91,10.0,South,12.7,-,N/A,Rain,Light Rain,170,2013-01-08 13:55:00
8:15 AM,66.7,63.9,90,29.91,10.0,SSE,8.1,-,N/A,Thunderstorm,Drizzle,160,2013-01-08 14:15:00
8:35 AM,66.9,63.5,89,29.93,10.0,SSE,11.5,21.9,N/A,Rain-Thunderstorm,Rain,160,2013-01-08 14:35:00
8:55 AM,67.3,63.5,88,29.86,7.0,SSE,19.6,26.5,0.09,Rain-Thunderstorm,Light Thunderstorms and Rain,150,2013-01-08 14:55:00
9:15 AM,67.3,63.9,89,29.86,10.0,SE,19.6,28.8,N/A,,Mostly Cloudy,140,2013-01-08 15:15:00
9:35 AM,67.6,64.0,88,29.86,10.0,SE,12.7,25.3,N/A,,Scattered Clouds,130,2013-01-08 15:35:00
9:55 AM,68.4,64.4,87,29.88,10.0,SSE,12.7,20.7,N/A,,Clear,150,2013-01-08 15:55:00
10:15 AM,68.7,64.2,86,29.93,10.0,SW,11.5,18.4,N/A,Thunderstorm,Scattered Clouds,220,2013-01-08 16:15:00
10:35 AM,68.7,64.4,86,29.88,10.0,SSE,21.9,-,N/A,Thunderstorm,Scattered Clouds,160,2013-01-08 16:35:00
10:55 AM,68.0,64.2,88,29.86,10.0,SSE,20.7,36.8,N/A,,Light Drizzle,160,2013-01-08 16:55:00
11:15 AM,69.8,64.6,83,29.88,10.0,South,15.0,25.3,N/A,,Clear,170,2013-01-08 17:15:00
11:35 AM,68.9,64.4,86,29.89,10.0,South,17.3,23.0,N/A,,Clear,180,2013-01-08 17:35:00
11:55 AM,69.3,64.6,85,29.83,10.0,SSE,17.3,26.5,N/A,,Clear,150,2013-01-08 17:55:00
12:15 PM,69.6,64.4,83,29.83,10.0,SSE,17.3,26.5,N/A,,Clear,160,2013-01-08 18:15:00
12:35 PM,69.4,64.4,84,29.82,10.0,South,19.6,-,N/A,,Scattered Clouds,170,2013-01-08 18:35:00
12:55 PM,70.3,63.9,80,29.81,10.0,South,20.7,26.5,N/A,,Scattered Clouds,180,2013-01-08 18:55:00
1:15 PM,70.7,64.0,79,29.79,10.0,South,23.0,29.9,N/A,,Clear,180,2013-01-08 19:15:00
1:55 PM,69.8,63.9,81,29.75,10.0,South,23.0,34.5,N/A,,Scattered Clouds,170,2013-01-08 19:55:00
2:15 PM,69.8,63.9,81,29.74,10.0,South,20.7,29.9,N/A,,Light Drizzle,170,2013-01-08 20:15:00
2:35 PM,70.7,63.9,79,29.73,10.0,South,18.4,29.9,N/A,,Clear,170,2013-01-08 20:35:00
2:55 PM,70.9,63.5,77,29.72,10.0,SSE,19.6,29.9,N/A,,Clear,160,2013-01-08 20:55:00
3:15 PM,70.9,63.5,77,29.73,10.0,South,17.3,31.1,N/A,,Clear,170,2013-01-08 21:15:00
3:35 PM,70.7,63.5,78,29.72,7.0,South,17.3,21.9,N/A,,Clear,170,2013-01-08 21:35:00
3:55 PM,70.9,63.5,77,29.71,10.0,South,17.3,24.2,N/A,,Clear,170,2013-01-08 21:55:00
4:15 PM,71.2,63.1,75,29.72,7.0,South,17.3,23.0,N/A,,Clear,170,2013-01-08 22:15:00
4:35 PM,71.6,63.0,74,29.72,7.0,South,13.8,23.0,N/A,,Clear,180,2013-01-08 22:35:00
4:55 PM,71.6,62.8,74,29.73,10.0,South,18.4,23.0,N/A,,Clear,180,2013-01-08 22:55:00
5:15 PM,70.9,63.0,76,29.74,10.0,South,12.7,18.4,N/A,,Clear,180,2013-01-08 23:15:00
5:35 PM,71.2,62.8,75,29.75,10.0,South,15.0,24.2,N/A,,Clear,180,2013-01-08 23:35:00
5:55 PM,71.1,62.8,75,29.80,10.0,WNW,10.4,-,N/A,,Clear,290,2013-01-08 23:55:00
6:15 PM,70.9,62.8,75,29.79,10.0,West,5.8,-,N/A,,Mostly Cloudy,260,2013-01-09 00:15:00
6:35 PM,70.7,62.8,76,29.78,10.0,Calm,Calm,-,N/A,,Mostly Cloudy,0,2013-01-09 00:35:00
6:55 PM,69.3,62.8,80,29.79,10.0,Calm,Calm,-,N/A,,Mostly Cloudy,0,2013-01-09 00:55:00
7:15 PM,69.4,62.8,79,29.79,10.0,East,3.5,-,N/A,,Mostly Cloudy,90,2013-01-09 01:15:00
7:55 PM,68.2,62.8,83,29.80,10.0,East,5.8,-,N/A,,Scattered Clouds,100,2013-01-09 01:55:00
8:15 PM,68.9,63.0,81,29.81,10.0,ESE,5.8,-,N/A,,Mostly Cloudy,120,2013-01-09 02:15:00
8:35 PM,69.1,63.0,81,29.83,7.0,SSE,3.5,-,N/A,,Mostly Cloudy,160,2013-01-09 02:35:00
8:55 PM,69.1,63.1,81,29.86,7.0,South,9.2,-,N/A,,Overcast,180,2013-01-09 02:55:00
9:15 PM,69.1,63.5,82,29.86,7.0,South,13.8,19.6,N/A,Rain-Thunderstorm,Light Thunderstorms and Rain,170,2013-01-09 03:15:00
9:35 PM,68.5,64.0,85,29.86,7.0,South,13.8,20.7,0.02,Rain,Light Rain,180,2013-01-09 03:35:00
9:55 PM,68.0,63.9,87,29.84,10.0,SSE,16.1,20.7,0.03,,Light Drizzle,160,2013-01-09 03:55:00
10:15 PM,68.0,64.0,87,29.80,7.0,SE,18.4,27.6,0.01,Rain,Light Rain,130,2013-01-09 04:15:00
10:35 PM,68.0,64.4,88,29.75,7.0,SE,23.0,34.5,0.02,Rain,Rain,140,2013-01-09 04:35:00
11:15 PM,69.4,64.8,85,29.79,7.0,SSE,16.1,27.6,N/A,,Scattered Clouds,150,2013-01-09 05:15:00
11:35 PM,69.4,65.3,87,29.82,7.0,South,13.8,23.0,N/A,,Mostly Cloudy,170,2013-01-09 05:35:00
11:55 PM,69.1,65.3,88,29.83,7.0,SSE,8.1,-,N/A,,Overcast,150,2013-01-09 05:55:00